Weather History for Cecil Field, FL

Change the Weather History Date:

Wednesday, June 26, 2013

  Actual Average (KJAX) Record (KJAX)
Temperature  
Mean Temperature 78 °F 81 °F  
Max Temperature 89 °F 91 °F 101 °F (1952)
Min Temperature 68 °F 72 °F 63 °F (1966)
Degree Days  
Heating Degree Days 0 0  
Month to date heating degree days 0  
Since 1 June heating degree days 0  
Since 1 July heating degree days 1349  
Cooling Degree Days 14 16  
Month to date cooling degree days 383  
Year to date cooling degree days 867  
Since 1 June cooling degree days 383  
Growing Degree Days 28 (Base 50)    
Moisture  
Dew Point 72 °F    
Average Humidity 92    
Maximum Humidity 100    
Minimum Humidity 62    
Precipitation  
Precipitation 0.00 in 0.23 in 5.20 in (2012)
Month to date precipitation 5.50  
Year to date precipitation 21.06  
Snow  
Snow 0.00 in 0.00 in 0.00 in (2002)
Month to date snowfall 0.0  
Since 1 June snowfall 0.0  
Since 1 July snowfall T  
Snow Depth -    
Sea Level Pressure  
Sea Level Pressure 30.06 in    
Wind  
Wind Speed 1 mph (SE)    
Max Wind Speed 12 mph    
Max Gust Speed -    
Visibility 8 miles    
Events      
T = Trace of Precipitation, MM = Missing Value Source: NWS Daily Summary

Daily Weather History Graph

Daily Weather History Graph

Search for Another Location

Airport:

Trip Planner

Search our weather history database for the weather conditions in past years. The results will help you decide how hot, cold, wet, or windy it might be!

Date:

Astronomy

Jun. 26, 2013 Rise Set
Actual Time 6:27 AM EDT 8:33 PM EDT
Civil Twilight 6:00 AM EDT 9:00 PM EDT
Nautical Twilight 5:26 AM EDT 9:33 PM EDT
Astronomical Twilight 4:50 AM EDT 10:09 PM EDT
Moon 11:14 PM EDT (6/26) 10:01 AM EDT (6/26)
Length of Visible Light 15h 00m
Length of Day
14h 05m
Waning Gibbous, 85% of the Moon is Illuminated
Jun 26
Waning Gibbous
Jun 30
Last Quarter
Jul 8
New
Jul 15
First Quarter
Jul 22
Full

Hourly Weather History & Observations

Time (EDT) Temp. Heat Index Dew Point Humidity Pressure Visibility Wind Dir Wind Speed Gust Speed Precip Events Conditions
12:15 AM 73.4 °F - 73.4 °F 100% 30.10 in 5.0 mi Calm Calm - N/A   Clear
12:35 AM 73.4 °F - 73.4 °F 100% 30.09 in 5.0 mi Calm Calm - N/A   Clear
12:55 AM 73.4 °F - 73.4 °F 100% 30.08 in 6.0 mi Calm Calm - N/A   Clear
1:15 AM 73.4 °F - 73.4 °F 100% 30.08 in 5.0 mi Calm Calm - N/A   Clear
1:35 AM 73.4 °F - 73.4 °F 100% 30.08 in 5.0 mi Calm Calm - N/A   Clear
1:55 AM 71.6 °F - 71.6 °F 100% 30.07 in 5.0 mi Calm Calm - N/A   Clear
2:15 AM 73.4 °F - 73.4 °F 100% 30.07 in 8.0 mi Calm Calm - N/A   Clear
2:35 AM 71.6 °F - 71.6 °F 100% 30.06 in 6.0 mi Calm Calm - N/A   Clear
2:55 AM 73.4 °F - 73.4 °F 100% 30.05 in 9.0 mi SE 3.5 mph - N/A   Clear
3:15 AM 73.4 °F - 73.4 °F 100% 30.06 in 8.0 mi Calm Calm - N/A   Clear
3:35 AM 71.6 °F - 71.6 °F 100% 30.05 in 4.0 mi Calm Calm - N/A   Clear
3:55 AM 71.6 °F - 71.6 °F 100% 30.05 in 2.0 mi Calm Calm - N/A   Clear
4:15 AM 71.6 °F - 71.6 °F 100% 30.05 in 4.0 mi Calm Calm - N/A   Clear
4:35 AM 71.6 °F - 71.6 °F 100% 30.06 in 3.0 mi Calm Calm - N/A   Clear
4:55 AM 71.6 °F - 71.6 °F 100% 30.05 in 5.0 mi Calm Calm - N/A   Clear
5:15 AM 69.8 °F - 69.8 °F 100% 30.05 in 4.0 mi Calm Calm - N/A   Clear
5:35 AM 69.8 °F - 69.8 °F 100% 30.06 in 3.0 mi Calm Calm - N/A   Clear
5:55 AM 68.0 °F - 68.0 °F 100% 30.06 in 3.0 mi Calm Calm - N/A   Clear
6:15 AM 69.8 °F - 69.8 °F 100% 30.07 in 5.0 mi Calm Calm - N/A   Clear
6:35 AM 68.0 °F - 68.0 °F 100% 30.07 in 5.0 mi Calm Calm - N/A   Clear
6:50 AM 68.0 °F - 68.0 °F 100% 30.08 in 6.0 mi Calm Calm - N/A   Clear
7:50 AM 73.4 °F - 73.4 °F 100% 30.09 in 7.0 mi Calm Calm - N/A   Clear
8:50 AM 77.0 °F - 77.0 °F 100% 30.11 in 10.0 mi Calm Calm - N/A   Clear
9:50 AM 82.4 °F 89.5 °F 75.2 °F 79% 30.11 in 10.0 mi SSW 5.8 mph - N/A   Clear
10:50 AM 86.0 °F 95.1 °F 75.2 °F 70% 30.09 in 10.0 mi Variable 5.8 mph - N/A   Clear
11:50 AM 87.8 °F 97.6 °F 75.2 °F 66% 30.09 in 10.0 mi Variable 3.5 mph - N/A   Clear
12:50 PM 89.6 °F 99.8 °F 75.2 °F 62% 30.08 in 10.0 mi Variable 4.6 mph - N/A   Scattered Clouds
1:50 PM 86.0 °F 93.4 °F 73.4 °F 66% 30.08 in 10.0 mi NNW 8.1 mph - N/A   Scattered Clouds
2:50 PM 86.0 °F 95.1 °F 75.2 °F 70% 30.06 in 10.0 mi North 11.5 mph - N/A   Scattered Clouds
3:50 PM 82.4 °F 87.2 °F 71.6 °F 70% 30.05 in 10.0 mi East 9.2 mph - N/A   Scattered Clouds
4:50 PM 82.4 °F 87.2 °F 71.6 °F 70% 30.03 in 10.0 mi East 11.5 mph - N/A   Partly Cloudy
5:50 PM 80.6 °F 85.4 °F 73.4 °F 79% 30.02 in 10.0 mi SE 6.9 mph - N/A   Partly Cloudy
6:50 PM 80.6 °F 86.2 °F 75.2 °F 84% 30.04 in 10.0 mi SE 8.1 mph - N/A   Partly Cloudy
7:50 PM 80.6 °F 86.2 °F 75.2 °F 84% 30.03 in 10.0 mi SE 5.8 mph - N/A   Clear
8:15 PM 77.0 °F - 73.4 °F 89% 30.04 in 9.0 mi South 5.8 mph - N/A   Clear
8:35 PM 77.0 °F - 71.6 °F 83% 30.05 in 10.0 mi South 4.6 mph - N/A   Clear
8:55 PM 75.2 °F - 71.6 °F 89% 30.04 in 9.0 mi SSE 3.5 mph - N/A   Clear
9:15 PM 75.2 °F - 71.6 °F 89% 30.03 in 9.0 mi Calm Calm - N/A   Clear
9:35 PM 75.2 °F - 71.6 °F 89% 30.02 in 10.0 mi Calm Calm - N/A   Clear
9:55 PM 73.4 °F - 71.6 °F 94% 30.03 in 10.0 mi Calm Calm - N/A   Clear
10:15 PM 73.4 °F - 71.6 °F 94% 30.03 in 10.0 mi Calm Calm - N/A   Clear
10:35 PM 73.4 °F - 71.6 °F 94% 30.04 in 10.0 mi Calm Calm - N/A   Clear
10:55 PM 71.6 °F - 71.6 °F 100% 30.05 in 10.0 mi Calm Calm - N/A   Clear
11:15 PM 71.6 °F - 71.6 °F 100% 30.06 in 10.0 mi Calm Calm - N/A   Clear
11:35 PM 71.6 °F - 71.6 °F 100% 30.06 in 10.0 mi Calm Calm - N/A   Clear
11:55 PM 71.6 °F - 71.6 °F 100% 30.05 in 10.0 mi Calm Calm - N/A   Clear